Temp
22 20 20 21 22 22 22 22 20 20 23 21 22 17 17 17 16 15 14 14 14 14 15 16 16 17 16 17 17 17 18 18 18 18 17 17 18 18 19 20 19 20 21 21
20 20 22 22 24 23 22 21 20 20 21 22 20 17 17 17 16 15 14 13 14 14 13 15 16 16 16 17 17 17 17 17 17 17 17 16 17 17 18 18 19 19 20 21
20 23 23 23 22 21 21 21 21 20 19 20 20 17 17 17 16 16 14 14 14 14 13 13 15 16 16 16 16 17 17 17 16 16 17 17 16 16 17 17 17 18 18 19
21 23 22 22 22 21 20 21 21 20 18 18 20 16 16 16 15 14 13 12 13 13 13 13 14 15 16 16 16 16 16 17 16 16 16 16 15 15 15 15 15 16 17 17
21 22 22 22 21 21 20 20 20 19 17 19 18 16 16 15 14 14 14 14 14 14 13 13 14 15 16 16 16 16 16 16 16 16 16 16 16 15 15 15 15 15 15 16
19 21 21 21 21 20 20 19 17 15 15 15 17 17 15 14 15 15 14 14 14 14 14 14 15 16 15 16 16 16 15 15 15 15 15 15 15 16 15 14 14 14 14 15
17 20 21 21 20 19 17 15 15 18 16 17 18 17 15 14 14 15 15 14 13 13 13 13 13 14 15 15 16 15 15 15 15 15 15 15 15 15 15 15 14 13 13 14
15 18 18 19 19 19 17 16 15 18 16 15 16 16 14 14 14 15 15 14 13 12 12 12 14 14 14 15 15 14 14 14 14 14 14 14 14 14 14 14 14 13 13 12
14 17 17 19 19 19 18 15 16 15 14 13 14 14 14 13 14 14 13 13 12 12 13 12 13 14 14 14 14 14 14 14 14 14 14 14 13 13 13 13 13 13 13 12
15 13 16 17 19 17 18 17 15 12 15 14 13 14 13 12 13 12 13 12 12 12 13 11 12 13 13 13 13 13 14 14 14 14 14 13 13 13 13 13 13 13 13 13
13 13 15 15 15 16 14 15 14 13 11 12 10 12 12 11 13 12 13 13 13 11 10 10 11 14 14 14 14 13 13 13 14 13 13 13 13 13 13 13 13 12 13 12
12 10 10 13 14 15 16 15 12 9 12 9 6 9 12 12 13 13 13 12 11 11 10 10 11 12 12 13 13 13 13 13 13 12 12 12 12 12 12 12 12 12 12 12
12 10 9 15 13 14 13 14 12 11 7 7 7 12 13 14 14 13 10 10 10 10 10 9 10 10 11 12 12 12 12 12 12 12 11 11 11 11 11 11 12 12 12 11
12 9 10 10 13 11 10 12 11 11 4 9 10 12 13 13 12 10 9 9 8 9 9 10 10 9 10 11 11 12 12 11 11 11 10 11 11 10 10 11 11 11 11 10
10 9 9 10 10 10 11 10 10 9 10 8 11 10 12 12 10 9 9 9 9 10 10 11 10 9 10 10 11 11 11 11 11 10 10 10 10 10 10 10 10 11 10 10
9 9 9 8 10 9 9 10 10 10 10 10 11 10 11 10 9 8 8 9 10 11 11 10 10 10 10 10 10 10 10 10 10 9 9 9 10 10 10 9 10 10 10 9
9 8 6 5 8 8 8 9 10 11 11 10 9 11 10 9 9 10 10 10 10 10 10 10 10 10 10 9 9 9 9 10 9 9 9 9 9 9 9 9 9 9 9 8
8 7 5 4 6 7 12 11 11 10 11 10 10 10 9 9 10 10 9 9 9 9 9 9 9 9 9 8 8 8 9 9 9 9 9 9 8 9 8 8 8 8 8 7
8 7 4 4 3 8 10 11 11 11 10 10 10 9 10 10 8 8 9 9 8 8 8 8 8 8 8 8 8 8 8 8 8 8 8 8 8 8 8 8 7 8 7 7
7 7 6 5 3 4 10 11 11 10 8 9 9 9 7 7 5 7 8 8 7 8 7 7 7 7 7 7 7 7 7 7 7 8 8 8 8 8 7 7 7 7 6 6
7 6 7 6 2 6 8 10 10 8 7 9 8 6 6 5 6 7 7 7 7 7 6 6 6 6 6 6 7 7 7 7 7 6 7 7 7 7 7 7 6 6 6 6
7 5 4 5 3 6 9 10 9 8 8 8 6 6 6 6 6 6 6 6 5 5 5 5 5 5 5 5 6 6 6 6 6 7 6 6 6 6 6 5 5 5 5 5
7 8 6 6 6 9 9 9 9 7 6 6 5 5 5 5 5 5 4 4 4 4 4 4 4 4 4 4 5 5 4 4 5 6 6 5 5 5 4 4 5 5 5 5
8 7 6 8 8 8 9 8 8 7 7 6 5 4 4 4 4 3 3 3 3 4 4 4 3 3 2 2 2 2 2 2 3 4 5 4 4 4 4 4 5 5 4 4
8 8 7 6 8 8 8 8 7 7 6 5 4 4 3 3 3 3 4 4 4 4 3 3 3 2 2 1 1 1 1 2 2 3 4 3 4 4 4 4 4 5 4 4
8 8 6 8 7 7 6 7 7 6 5 4 3 3 3 3 3 4 4 3 3 3 2 1 1 1 1 1 1 1 1 2 2 2 3 4 4 4 3 3 4 4 4 5
Height
825 840 847 838 832 833 836 841 845 836 821 824 824 840 838 834 831 834 835 834 832 829 827 823 819 815 812 808 805 802 798 796 793 791 790 788 787 786 786 788 788 788 788 785
838 845 828 825 824 830 834 840 845 833 821 823 829 846 842 838 839 838 838 837 835 832 829 825 822 817 814 812 809 806 803 801 798 796 793 792 790 788 787 787 788 790 788 785
841 828 820 824 833 838 838 838 840 842 832 825 828 849 845 841 841 839 839 838 836 834 831 828 824 820 817 814 812 809 807 804 801 798 793 790 787 785 785 785 785 785 785 785
833 821 827 832 835 837 847 831 833 837 844 854 830 865 848 847 847 844 843 841 838 835 832 828 825 821 819 816 814 811 808 805 802 799 796 794 794 791 789 787 786 783 782 782
838 830 831 835 835 832 842 830 834 834 845 843 841 854 846 845 851 847 844 840 837 833 831 828 825 822 819 816 813 810 807 804 802 800 798 795 792 790 787 785 781 779 777 778
837 826 829 832 830 832 832 835 839 845 852 864 840 845 851 851 848 846 843 839 835 832 829 826 823 820 817 814 810 806 805 804 801 798 795 791 788 785 781 779 778 777 774 771
849 837 831 831 839 837 844 857 868 854 863 855 832 842 845 848 845 842 841 839 834 830 827 825 821 818 815 811 808 804 802 801 799 796 792 790 787 784 780 777 774 772 770 767
873 858 848 839 842 848 850 856 873 865 872 862 840 844 847 844 842 840 838 836 833 830 826 823 820 817 814 810 807 804 800 797 796 792 789 787 784 779 776 775 772 768 766 763
878 862 848 841 839 844 850 864 856 866 870 874 855 849 847 844 843 841 839 834 831 827 824 823 819 816 812 808 805 803 799 795 793 790 786 781 778 776 774 770 766 763 760 759
872 880 856 849 842 847 847 850 867 879 875 875 862 851 843 846 844 841 836 835 829 823 821 820 816 812 807 804 801 798 795 792 789 785 779 775 773 769 765 761 759 758 755 752
873 878 865 857 861 861 864 865 869 874 884 882 886 854 835 841 839 837 832 828 823 821 823 819 812 807 804 801 798 795 791 785 780 777 777 776 772 767 763 760 755 752 748 746
878 886 889 871 862 858 858 862 875 897 881 894 918 868 830 833 827 828 828 826 824 822 819 816 812 807 802 798 794 790 787 782 778 777 774 771 766 761 757 753 748 746 743 740
878 890 901 868 870 863 866 866 872 880 903 905 908 846 823 819 821 826 829 827 824 821 817 812 807 802 797 792 789 785 781 776 773 770 766 761 758 755 750 745 741 738 735 732
876 890 887 888 871 876 880 870 872 880 923 879 864 836 826 831 830 829 829 827 823 818 812 806 801 796 791 786 782 778 774 770 767 763 759 753 749 747 743 737 733 730 727 723
882 890 886 880 877 875 870 871 871 877 873 883 838 850 835 830 832 830 826 821 814 809 805 799 794 789 785 780 775 771 766 762 758 755 751 747 743 738 733 729 726 722 718 717
884 889 886 888 873 874 870 862 861 861 859 854 847 836 832 830 831 828 823 817 808 802 797 792 787 782 778 773 769 763 757 753 750 745 741 739 736 731 727 722 718 714 712 709
885 891 901 903 882 880 872 850 850 845 843 844 848 831 829 829 827 822 813 809 802 797 793 787 781 774 769 765 761 756 750 745 741 737 731 729 727 724 719 715 712 709 705 702
886 891 904 910 893 892 836 836 838 841 835 836 833 831 830 826 815 814 812 805 798 794 787 780 774 767 761 757 753 747 742 737 732 727 723 720 718 714 711 708 705 701 697 693
878 888 906 913 914 868 838 830 833 834 829 828 828 829 823 818 815 808 805 802 798 790 782 775 768 761 753 748 743 737 730 727 722 717 714 711 709 705 703 699 696 692 689 684
879 882 894 901 916 903 838 828 828 832 838 824 825 824 823 821 820 799 797 793 788 782 776 768 761 753 746 739 734 727 720 716 711 708 705 702 699 697 695 691 687 684 680 674
884 890 885 892 912 869 834 830 831 849 844 824 824 824 821 821 815 800 795 788 783 775 767 759 751 743 736 730 725 716 710 706 702 698 696 692 690 689 686 683 679 676 671 667
872 889 892 890 903 874 822 825 833 826 821 821 821 819 814 808 800 795 789 784 778 769 759 751 743 732 727 722 715 707 702 697 693 690 685 683 681 680 678 676 669 666 662 659
864 847 863 860 846 819 818 817 817 819 821 819 817 814 811 805 798 792 786 778 770 763 755 747 738 725 716 711 706 697 692 689 686 681 676 674 672 670 670 666 661 658 654 652
840 839 845 835 814 815 816 814 814 815 817 815 814 812 808 803 797 791 784 776 767 756 747 738 728 718 707 701 695 689 684 681 677 672 667 666 663 662 660 657 653 651 649 645
835 835 833 827 814 812 810 810 811 813 813 814 813 810 805 800 795 789 779 770 761 750 739 730 721 709 698 690 682 678 673 670 667 664 661 659 656 654 651 649 646 643 641 639
823 820 831 812 806 809 811 807 808 809 812 812 808 802 801 798 790 783 775 768 759 746 734 722 712 702 690 682 675 669 666 663 659 655 654 652 648 646 643 641 637 636 633 628
Wind_Speed
2 4 3 6 5 4 2 2 5 5 3 5 3 6 10 10 14 12 9 8 8 9 10 18 25 31 32 36 35 34 35 34 35 36 35 30 29 24 12 27 32 35 39 38
4 3 4 5 1 1 2 3 5 5 5 3 4 6 6 7 6 7 7 7 7 5 7 16 23 28 31 33 33 33 31 30 30 29 30 23 20 26 25 22 18 28 33 39
4 3 3 2 4 4 3 3 2 5 6 2 1 3 5 4 8 8 7 5 4 5 6 7 17 23 27 31 31 30 30 28 25 26 28 30 26 29 28 30 28 25 27 37
3 2 4 2 1 2 4 1 2 5 5 3 5 4 5 5 6 6 6 5 4 5 5 6 13 20 21 27 29 26 28 29 21 24 27 27 25 20 23 25 25 27 25 28
5 1 2 1 1 1 6 3 5 4 5 2 3 2 3 5 5 5 6 6 5 3 2 4 8 15 16 23 28 28 26 31 19 24 23 23 26 25 22 25 28 29 29 29
5 4 3 1 2 3 5 4 4 4 3 0 5 5 4 1 3 2 4 6 6 4 3 3 8 12 13 18 25 26 26 25 24 25 26 26 27 27 25 27 26 29 33 33
7 3 1 4 4 5 10 6 4 3 3 6 3 1 1 6 4 2 4 8 8 7 4 4 7 10 12 17 21 21 18 23 26 29 31 29 27 28 18 24 28 29 30 31
3 3 5 6 2 1 2 3 4 4 3 5 8 4 4 7 6 2 2 6 8 9 5 6 8 10 10 14 16 11 14 20 24 27 30 29 28 24 18 24 28 29 29 30
3 4 4 4 2 2 3 3 2 0 2 1 3 2 6 5 3 2 6 7 8 7 4 5 9 9 12 15 14 8 15 19 21 24 26 31 27 22 25 30 33 30 29 29
1 4 2 4 3 5 3 1 3 3 3 5 5 4 5 7 4 5 9 6 6 7 5 7 10 13 14 15 13 13 20 22 21 24 25 30 35 38 35 38 34 28 29 30
3 3 5 3 4 2 5 3 4 2 4 4 4 6 6 7 3 10 11 12 11 4 6 6 12 23 22 20 13 16 20 25 30 24 24 26 34 37 33 34 39 28 29 33
1 3 4 4 6 5 2 2 4 4 5 2 3 8 8 5 13 15 14 10 8 6 6 7 16 20 18 17 18 19 24 25 26 22 24 32 31 37 33 36 35 31 30 30
2 1 3 2 5 4 3 2 4 2 3 6 3 7 5 16 22 16 7 8 7 8 8 8 15 17 22 24 20 19 27 27 26 30 31 32 29 33 36 37 32 32 30 32
4 2 5 6 3 1 5 3 2 4 2 5 15 26 27 18 18 10 7 8 8 8 10 11 12 16 23 24 19 24 26 23 28 30 33 31 34 32 32 36 32 32 36 30
3 3 3 6 8 6 12 11 11 11 11 8 17 13 20 19 10 7 8 10 12 13 15 16 14 10 19 24 27 29 23 25 27 27 30 31 29 35 36 27 36 35 29 27
1 2 2 6 6 8 12 11 12 12 14 15 22 27 12 9 5 8 9 13 19 21 19 18 15 20 26 27 28 30 29 28 29 28 27 29 30 32 28 34 35 20 23 25
4 2 2 5 5 8 9 7 8 5 6 6 9 15 5 9 7 11 19 19 20 18 17 19 17 26 29 30 30 27 29 29 28 30 32 28 30 26 31 30 25 27 24 28
5 4 3 4 5 2 4 1 4 10 8 10 12 10 7 11 19 14 12 17 17 16 21 21 26 31 30 31 31 30 29 32 33 32 32 26 28 28 26 27 31 31 30 30
5 4 2 1 3 8 8 5 5 3 11 11 10 7 15 14 13 15 10 12 20 22 24 27 32 32 36 36 33 35 33 33 32 33 28 26 28 29 27 26 30 32 29 30
5 3 3 2 2 6 5 4 3 2 9 5 1 9 9 10 12 17 20 20 21 30 30 31 36 38 36 37 37 35 36 33 31 32 25 31 29 27 25 29 29 28 28 32
3 2 11 5 4 9 11 9 2 2 7 4 3 5 10 9 10 19 19 23 32 32 36 39 36 34 35 36 35 34 34 31 36 27 33 30 24 25 27 24 27 32 32 31
8 6 4 3 3 10 6 4 7 5 1 4 4 6 12 16 18 19 21 21 25 28 35 37 35 36 37 36 34 32 31 34 29 33 26 25 28 25 24 28 35 30 29 24
4 7 5 10 8 5 6 5 5 3 3 4 5 9 10 14 19 20 20 23 24 30 34 36 36 38 41 38 35 32 32 31 34 29 30 30 26 25 25 31 30 26 23 20
5 6 5 2 5 11 11 5 4 2 3 6 6 7 10 15 16 20 18 19 22 33 34 38 37 36 36 37 38 36 34 32 30 33 25 25 24 24 26 25 24 23 19 21
5 5 5 9 12 9 5 3 2 3 4 5 7 6 10 12 16 19 21 20 28 33 37 38 37 36 37 39 35 32 30 26 25 25 25 22 23 25 23 23 25 19 20 25
7 7 6 8 7 6 5 3 2 2 4 6 7 11 10 13 17 22 18 28 30 34 41 38 38 36 37 36 31 27 25 26 25 21 20 19 21 20 19 22 20 20 25 26
Wind_Direction
331 50 260 226 191 192 213 251 283 261 294 344 329 57 48 54 64 60 52 49 47 42 12 38 42 41 38 36 34 33 30 26 23 21 20 18 20 19 316 255 234 229 228 223
19 247 231 205 192 64 304 288 304 284 323 327 3 84 66 63 60 68 70 57 55 35 18 24 36 39 39 34 31 30 28 25 22 21 21 17 13 14 16 5 293 262 243 229
164 237 166 83 44 32 316 261 304 266 315 302 65 147 112 64 67 61 39 39 29 47 37 14 26 34 36 31 25 22 20 16 16 18 14 12 15 9 3 360 351 342 282 245
244 333 109 70 68 86 328 196 269 305 11 270 63 278 224 114 59 36 21 30 28 12 18 23 27 27 31 26 17 13 11 8 17 18 12 10 9 4 357 355 351 344 339 285
261 309 46 39 129 52 246 313 266 242 200 325 319 119 202 164 39 357 343 356 354 8 356 22 23 21 29 22 18 11 3 0 9 5 6 2 355 349 346 346 344 344 340 334
252 305 50 93 19 64 294 319 354 49 104 359 219 165 202 173 156 313 333 332 323 342 340 360 17 15 20 16 10 9 6 12 3 1 356 349 345 340 336 339 339 337 332 329
340 12 52 51 15 4 38 32 345 353 357 231 186 10 281 167 197 107 16 336 309 318 301 318 348 357 360 0 357 4 6 358 353 349 344 339 331 326 317 324 332 328 325 321
13 319 8 340 104 306 352 127 147 275 263 291 326 249 226 185 162 126 337 290 313 315 290 310 326 330 316 322 333 352 3 353 344 342 336 330 332 323 311 324 326 326 323 320
15 268 329 25 15 76 332 47 164 188 345 343 254 21 353 182 173 308 328 332 324 309 283 303 302 315 313 315 325 329 349 346 338 335 328 329 329 330 315 319 317 314 318 318
351 306 331 291 38 18 87 203 21 15 308 286 287 255 226 206 252 306 339 322 315 293 280 277 289 294 304 318 325 332 338 332 323 329 335 329 320 323 322 323 318 300 309 313
39 107 289 343 40 34 345 354 56 126 154 221 296 256 180 171 233 333 334 331 327 282 262 271 322 332 326 322 310 321 327 327 325 318 321 316 314 308 307 314 313 291 301 310
330 128 277 254 272 272 197 99 91 123 274 257 165 267 160 198 349 353 344 330 332 321 297 297 307 309 316 311 303 312 316 313 316 314 311 308 309 310 301 308 309 304 292 301
150 52 338 24 355 4 66 52 112 145 91 208 153 262 237 327 334 333 340 337 322 311 300 287 296 282 292 301 290 306 308 305 313 312 306 300 306 305 298 299 300 306 299 295
102 157 198 206 198 104 284 196 329 152 163 267 241 275 283 298 306 315 305 286 284 279 281 287 294 271 287 296 290 299 298 302 309 306 303 298 305 300 299 306 303 303 304 287
113 216 227 260 260 258 265 262 251 223 234 226 272 261 281 294 289 274 272 285 297 294 298 306 301 288 300 298 298 296 286 300 307 300 300 295 302 304 303 304 308 305 299 289
194 260 352 283 268 256 264 257 247 236 241 252 265 274 266 264 277 282 281 294 303 301 302 305 295 299 301 296 297 291 289 297 305 293 292 291 304 303 302 302 302 295 301 302
156 150 63 268 331 323 294 236 207 201 220 222 257 270 304 295 276 294 304 298 297 292 293 298 286 298 294 296 292 282 284 292 298 289 293 287 299 296 299 303 300 293 293 300
147 137 145 264 343 319 261 261 197 231 225 246 266 275 274 291 298 301 297 292 298 301 300 294 297 294 290 292 289 283 288 294 292 284 282 285 284 294 289 300 295 284 292 295
165 140 260 174 209 291 287 227 169 219 280 235 252 300 297 300 305 292 297 319 305 298 298 299 297 293 295 295 287 287 286 288 290 285 272 286 278 282 286 295 290 286 290 292
123 102 157 128 177 247 242 217 135 140 294 154 272 296 312 322 310 308 323 315 311 308 304 302 301 298 295 294 293 287 286 284 283 282 281 291 280 275 284 292 285 290 290 290
147 205 218 218 251 278 249 255 45 131 246 258 328 308 305 297 284 300 310 308 308 307 309 308 303 297 296 297 294 288 287 284 287 282 289 277 275 285 290 289 291 293 290 288
174 171 197 138 179 268 188 134 172 222 228 280 281 282 300 304 306 311 312 310 310 310 311 310 305 302 301 297 294 289 289 288 290 288 280 288 285 282 287 291 290 283 287 283
242 195 187 185 213 229 200 198 239 174 231 264 277 307 305 309 312 315 313 312 314 315 311 310 306 302 301 298 294 290 287 286 290 281 286 281 280 285 289 287 280 280 284 290
250 176 233 39 231 247 256 276 172 196 245 279 289 303 310 311 317 313 311 315 316 315 315 312 308 304 299 298 294 288 286 284 281 281 273 278 278 286 287 279 278 283 282 292
202 154 219 259 274 291 274 204 184 269 301 309 287 302 315 317 311 313 319 315 314 314 315 314 311 305 302 302 297 289 283 286 280 274 278 273 274 283 277 277 283 279 283 280
190 210 191 242 219 204 247 250 257 315 299 284 305 325 324 311 316 319 315 315 317 316 316 313 311 309 305 306 305 299 291 289 280 273 276 282 283 278 275 284 281 285 284 287